TimeEST,TemperatureF,Dew PointF,Humidity,Sea Level PressureIn,VisibilityMPH,Wind Direction,Wind SpeedMPH,Gust SpeedMPH,PrecipitationIn,Events,Conditions,WindDirDegrees,DateUTC
12:15 AM,12.2,10.4,92,30.13,10.0,Calm,Calm,-,N/A,,Clear,0,2014-03-07 05:15:00
12:35 AM,12.2,10.4,92,30.12,8.0,Calm,Calm,-,N/A,,Clear,0,2014-03-07 05:35:00
12:55 AM,10.4,8.6,92,30.12,9.0,North,3.5,-,N/A,,Clear,10,2014-03-07 05:55:00
1:15 AM,10.4,8.6,92,30.12,9.0,NNE,3.5,-,N/A,,Clear,30,2014-03-07 06:15:00
1:35 AM,10.4,6.8,85,30.11,8.0,Calm,Calm,-,N/A,,Clear,0,2014-03-07 06:35:00
1:55 AM,10.4,6.8,85,30.10,8.0,Calm,Calm,-,N/A,,Clear,0,2014-03-07 06:55:00
2:15 AM,8.6,5.0,85,30.11,7.0,Calm,Calm,-,N/A,,Clear,0,2014-03-07 07:15:00
2:35 AM,6.8,3.2,85,30.10,7.0,Calm,Calm,-,N/A,,Clear,0,2014-03-07 07:35:00
2:55 AM,6.8,3.2,85,30.09,7.0,Calm,Calm,-,N/A,,Clear,0,2014-03-07 07:55:00
3:15 AM,8.6,5.0,85,30.08,8.0,Calm,Calm,-,N/A,,Clear,0,2014-03-07 08:15:00
3:35 AM,6.8,5.0,92,30.07,8.0,Calm,Calm,-,N/A,,Clear,0,2014-03-07 08:35:00
3:55 AM,6.8,5.0,92,30.06,7.0,Calm,Calm,-,N/A,,Clear,0,2014-03-07 08:55:00
4:15 AM,5.0,1.4,85,30.07,8.0,Calm,Calm,-,N/A,,Clear,0,2014-03-07 09:15:00
4:35 AM,6.8,3.2,85,30.07,8.0,NNW,3.5,-,N/A,,Clear,340,2014-03-07 09:35:00
4:55 AM,5.0,1.4,85,30.07,9.0,Calm,Calm,-,N/A,,Clear,0,2014-03-07 09:55:00
5:15 AM,6.8,3.2,85,30.07,7.0,Calm,Calm,-,N/A,,Clear,0,2014-03-07 10:15:00
5:35 AM,6.8,3.2,85,30.07,7.0,Calm,Calm,-,N/A,,Clear,0,2014-03-07 10:35:00
5:55 AM,8.6,5.0,85,30.06,7.0,Calm,Calm,-,N/A,,Clear,0,2014-03-07 10:55:00
6:15 AM,6.8,3.2,85,30.07,8.0,Calm,Calm,-,N/A,,Clear,0,2014-03-07 11:15:00
6:35 AM,3.2,-0.4,85,30.06,8.0,NNW,3.5,-,N/A,,Clear,330,2014-03-07 11:35:00
6:55 AM,5.0,1.4,85,30.06,6.0,Calm,Calm,-,N/A,,Clear,0,2014-03-07 11:55:00
7:15 AM,5.0,1.4,85,30.06,6.0,Calm,Calm,-,N/A,,Clear,0,2014-03-07 12:15:00
7:35 AM,5.0,1.4,85,30.07,6.0,Calm,Calm,-,N/A,,Clear,0,2014-03-07 12:35:00
7:55 AM,6.8,3.2,85,30.06,7.0,Calm,Calm,-,N/A,,Clear,0,2014-03-07 12:55:00
8:15 AM,8.6,5.0,85,30.07,7.0,Calm,Calm,-,N/A,,Clear,0,2014-03-07 13:15:00
8:35 AM,8.6,5.0,85,30.08,7.0,Calm,Calm,-,N/A,,Clear,0,2014-03-07 13:35:00
8:55 AM,10.4,6.8,85,30.07,5.0,Calm,Calm,-,N/A,,Clear,0,2014-03-07 13:55:00
9:15 AM,14.0,10.4,86,30.07,6.0,ESE,3.5,-,N/A,,Clear,120,2014-03-07 14:15:00
9:35 AM,14.0,12.2,93,30.07,6.0,Calm,Calm,-,N/A,,Clear,0,2014-03-07 14:35:00
9:55 AM,17.6,15.8,93,30.07,8.0,Calm,Calm,-,N/A,,Clear,0,2014-03-07 14:55:00
10:15 AM,21.2,15.8,80,30.06,9.0,Calm,Calm,-,N/A,,Clear,0,2014-03-07 15:15:00
10:35 AM,23.0,15.8,74,30.06,8.0,Calm,Calm,-,N/A,,Clear,0,2014-03-07 15:35:00
10:55 AM,24.8,17.6,74,30.05,8.0,Calm,Calm,-,N/A,,Clear,0,2014-03-07 15:55:00
11:15 AM,24.8,19.4,80,30.05,8.0,Calm,Calm,-,N/A,,Clear,0,2014-03-07 16:15:00
11:35 AM,28.4,19.4,69,30.06,8.0,Calm,Calm,-,N/A,,Clear,0,2014-03-07 16:35:00
11:55 AM,30.2,21.2,69,30.04,9.0,Calm,Calm,-,N/A,,Clear,0,2014-03-07 16:55:00
12:15 PM,32.0,21.2,64,30.03,8.0,Calm,Calm,-,N/A,,Clear,0,2014-03-07 17:15:00
12:35 PM,33.8,23.0,65,30.02,8.0,Variable,3.5,-,N/A,,Clear,0,2014-03-07 17:35:00
12:55 PM,33.8,23.0,65,30.01,8.0,West,4.6,-,N/A,,Clear,260,2014-03-07 17:55:00
1:15 PM,33.8,21.2,60,30.01,8.0,West,5.8,-,N/A,,Clear,280,2014-03-07 18:15:00
1:35 PM,33.8,23.0,65,30.00,8.0,WSW,4.6,-,N/A,,Clear,250,2014-03-07 18:35:00
1:55 PM,35.6,23.0,60,29.98,8.0,South,5.8,-,N/A,,Clear,180,2014-03-07 18:55:00
2:15 PM,35.6,23.0,60,29.98,8.0,WSW,3.5,-,N/A,,Clear,240,2014-03-07 19:15:00
2:35 PM,35.6,24.8,65,29.97,7.0,South,5.8,-,N/A,,Clear,180,2014-03-07 19:35:00
2:55 PM,35.6,24.8,65,29.97,7.0,Calm,Calm,-,N/A,,Clear,0,2014-03-07 19:55:00
3:15 PM,37.4,24.8,60,29.97,7.0,West,3.5,-,N/A,,Clear,260,2014-03-07 20:15:00
3:35 PM,37.4,24.8,60,29.97,9.0,Calm,Calm,-,N/A,,Clear,0,2014-03-07 20:35:00
3:55 PM,37.4,24.8,60,29.96,9.0,WSW,4.6,-,N/A,,Clear,240,2014-03-07 20:55:00
4:15 PM,37.4,24.8,60,29.95,9.0,Calm,Calm,-,N/A,,Clear,0,2014-03-07 21:15:00
4:35 PM,37.4,26.6,65,29.95,9.0,SSW,6.9,-,N/A,,Clear,200,2014-03-07 21:35:00
4:55 PM,37.4,24.8,60,29.95,9.0,SSW,4.6,-,N/A,,Clear,210,2014-03-07 21:55:00
5:15 PM,37.4,24.8,60,29.94,9.0,SSW,4.6,-,N/A,,Clear,210,2014-03-07 22:15:00
5:35 PM,35.6,26.6,70,29.93,9.0,SSE,5.8,-,N/A,,Clear,150,2014-03-07 22:35:00
5:55 PM,35.6,24.8,65,29.93,7.0,South,6.9,-,N/A,,Clear,170,2014-03-07 22:55:00
6:15 PM,33.8,24.8,70,29.93,6.0,South,4.6,-,N/A,,Haze,180,2014-03-07 23:15:00
6:35 PM,33.8,24.8,70,29.94,6.0,South,4.6,-,N/A,,Haze,180,2014-03-07 23:35:00
6:55 PM,33.8,24.8,70,29.93,6.0,Calm,Calm,-,N/A,,Haze,0,2014-03-07 23:55:00
7:15 PM,33.8,24.8,70,29.93,7.0,Calm,Calm,-,N/A,,Clear,0,2014-03-08 00:15:00
7:35 PM,33.8,24.8,70,29.93,8.0,Calm,Calm,-,N/A,,Clear,0,2014-03-08 00:35:00
7:55 PM,33.8,24.8,70,29.93,7.0,Calm,Calm,-,N/A,,Partly Cloudy,0,2014-03-08 00:55:00
8:15 PM,33.8,26.6,75,29.93,7.0,Calm,Calm,-,N/A,,Mostly Cloudy,0,2014-03-08 01:15:00
8:35 PM,33.8,26.6,75,29.93,7.0,Calm,Calm,-,N/A,,Scattered Clouds,0,2014-03-08 01:35:00
8:55 PM,33.8,26.6,75,29.93,7.0,SW,4.6,-,N/A,,Scattered Clouds,230,2014-03-08 01:55:00
9:15 PM,33.8,26.6,75,29.93,7.0,SSW,3.5,-,N/A,,Partly Cloudy,200,2014-03-08 02:15:00
9:35 PM,33.8,26.6,75,29.94,8.0,Calm,Calm,-,N/A,,Scattered Clouds,0,2014-03-08 02:35:00
9:55 PM,35.6,26.6,70,29.94,9.0,SW,3.5,-,N/A,,Mostly Cloudy,230,2014-03-08 02:55:00
10:15 PM,33.8,26.6,75,29.92,9.0,South,8.1,-,N/A,,Partly Cloudy,180,2014-03-08 03:15:00
10:35 PM,33.8,26.6,75,29.92,9.0,Calm,Calm,-,N/A,,Clear,0,2014-03-08 03:35:00
10:55 PM,35.6,26.6,70,29.93,9.0,WSW,4.6,-,N/A,,Clear,240,2014-03-08 03:55:00
11:15 PM,35.6,28.4,75,29.93,7.0,WSW,4.6,-,N/A,,Clear,250,2014-03-08 04:15:00
11:35 PM,35.6,28.4,75,29.93,8.0,West,4.6,-,N/A,,Clear,260,2014-03-08 04:35:00
11:55 PM,33.8,26.6,75,29.93,7.0,WSW,4.6,-,N/A,,Clear,250,2014-03-08 04:55:00